Temp
69 67 68 68 68 68 67 66 68 69 70 70 69 70 71 71 70 70 71 71 71 72 73 73 71 71 70 71 70 70 69 68 67 65 65 68 65 66 70 70 70 72 72 72 71 67 66 64 69 77 79 78 79 79 80 80 81 80 79 80 81 83 82
70 69 70 69 67 67 65 64 66 68 68 68 69 69 71 71 71 71 71 71 70 70 72 71 70 70 69 68 68 67 66 65 66 65 64 63 64 64 65 65 67 69 70 71 71 70 65 63 66 70 71 76 76 77 78 80 81 81 81 81 82 82 80
69 68 68 66 66 66 64 64 65 66 67 67 68 69 69 71 70 71 71 70 69 69 70 70 69 68 68 69 68 66 66 64 65 64 62 64 64 64 64 63 62 63 64 65 68 67 66 66 61 64 68 68 68 73 77 78 79 81 81 81 81 82 82
67 66 65 65 66 66 64 64 65 66 67 67 68 68 69 70 70 69 68 69 69 68 68 68 67 67 68 69 68 67 66 63 63 63 63 63 63 63 63 63 62 62 61 60 62 63 62 62 63 65 67 71 71 69 73 78 77 79 81 81 80 82 82
67 66 65 64 65 65 64 64 65 65 65 67 68 68 67 68 67 67 68 68 67 66 66 67 66 67 68 68 66 65 64 63 62 61 61 60 60 61 61 62 62 62 63 62 62 62 61 61 61 61 64 68 68 70 73 74 77 77 80 80 83 83 83
67 66 65 65 65 65 64 64 64 64 65 65 65 66 66 66 67 65 66 65 65 66 65 66 66 66 66 66 65 65 63 62 62 61 60 60 60 59 59 61 61 62 62 63 63 61 61 61 60 59 62 64 60 63 69 72 71 78 80 80 82 84 83
65 65 65 65 65 64 64 63 64 64 64 64 65 65 65 67 67 66 66 65 66 66 66 65 66 66 66 67 66 64 64 64 64 63 63 62 62 62 62 61 61 62 62 63 62 61 59 58 56 56 56 58 59 59 64 68 71 70 74 79 82 81 80
64 64 64 64 64 63 64 63 63 64 65 66 65 65 66 66 66 66 65 65 65 65 65 65 66 66 66 67 66 65 65 65 65 64 64 63 63 63 63 63 63 64 63 63 63 62 62 59 57 56 54 51 54 57 58 63 66 67 69 73 76 77 79
64 64 63 63 63 63 63 63 63 64 65 65 65 65 65 65 65 65 66 65 65 65 65 65 65 66 65 65 65 64 64 66 65 64 64 64 63 63 64 64 64 64 65 64 64 63 63 62 61 60 58 55 50 49 54 55 59 62 68 67 72 75 75
63 62 62 62 62 63 63 64 64 65 65 65 65 65 64 65 65 65 65 65 64 64 64 65 65 65 65 65 64 64 63 65 65 64 64 63 64 64 64 63 63 65 64 63 63 63 63 63 62 62 61 58 56 50 48 50 53 55 61 67 65 69 73
63 63 63 63 64 64 65 65 65 64 64 65 65 65 65 65 64 65 65 64 64 64 64 64 65 65 65 64 64 64 64 65 64 65 64 64 63 64 63 64 64 64 64 63 62 62 62 63 62 62 62 62 61 56 54 50 51 57 58 63 65 65 69
64 65 66 66 66 65 64 64 64 64 64 65 65 65 65 65 65 64 64 64 64 64 64 64 64 64 64 63 63 63 64 64 64 63 63 63 63 63 62 62 63 62 62 61 62 62 62 62 61 62 61 61 60 59 57 55 50 57 60 57 62 66 65
67 67 66 65 64 65 65 64 64 63 64 65 64 65 65 65 64 64 64 64 64 64 64 63 64 64 63 63 62 63 63 63 63 62 63 63 63 62 62 61 62 61 61 61 61 61 61 61 61 60 60 59 60 60 58 56 53 53 59 60 61 63 66
64 65 64 64 64 63 64 64 64 65 65 64 65 64 64 65 65 64 65 64 64 63 63 62 63 63 62 62 62 62 62 63 62 62 62 62 63 62 61 61 61 61 61 59 59 59 60 59 59 58 58 59 58 58 57 54 52 52 56 60 60 61 64
64 64 63 64 63 64 64 63 64 64 63 64 65 65 65 64 65 64 64 64 63 63 63 63 62 62 61 61 61 61 61 62 61 61 61 61 61 61 60 61 60 61 61 59 59 58 58 57 56 55 56 56 55 55 57 54 52 51 50 55 57 61 61
63 63 63 63 63 63 63 64 65 64 64 64 64 65 64 64 64 65 64 63 63 62 62 62 61 61 61 61 61 61 61 61 60 60 60 60 61 61 60 59 60 60 59 58 57 55 55 53 53 53 53 54 53 54 55 55 52 50 50 52 56 57 59
63 62 62 62 62 63 63 64 64 64 64 64 63 63 64 65 64 64 63 62 62 61 60 60 60 61 61 61 61 61 62 61 61 61 60 60 60 60 60 59 59 59 58 56 54 53 53 52 52 52 52 52 52 52 53 53 53 51 50 50 54 56 59
61 61 61 62 61 62 63 63 64 64 63 63 64 64 64 65 64 63 61 61 61 60 59 59 58 59 59 60 60 61 61 61 61 61 60 60 60 60 59 58 59 58 56 54 53 52 52 51 52 52 51 52 52 52 52 52 52 52 51 50 52 56 58
61 61 61 61 61 62 63 63 63 64 65 63 63 63 63 63 63 63 62 61 60 60 59 58 57 57 58 59 59 60 61 60 61 61 60 61 61 60 59 59 58 57 55 53 51 51 51 50 51 50 50 51 52 51 50 50 51 51 50 50 51 51 55
61 61 61 61 62 62 63 63 63 63 64 63 63 62 62 62 62 62 61 60 59 58 57 56 55 54 55 57 58 60 60 60 61 60 60 61 61 60 60 59 58 56 54 53 51 51 50 50 50 50 50 50 51 49 48 48 49 49 48 48 50 52 53
62 62 62 62 62 62 62 62 62 62 63 62 62 62 62 62 62 62 60 60 59 57 56 55 53 53 54 55 56 60 60 59 60 60 60 60 60 60 59 58 57 56 54 54 52 51 51 49 50 49 50 50 49 47 46 47 47 47 47 47 48 49 51
63 63 63 62 62 61 62 62 62 62 62 61 61 63 63 63 62 61 61 60 58 56 54 52 51 49 50 52 54 58 60 60 59 59 59 59 60 59 59 58 57 56 55 53 50 49 49 48 49 48 49 48 47 46 46 46 46 46 46 46 46 49 49
63 63 63 62 62 62 62 61 61 62 61 62 62 62 62 62 62 61 60 59 57 55 53 52 45 42 42 47 51 56 60 60 60 59 58 58 58 59 58 58 57 55 52 51 50 47 46 46 47 48 48 47 46 46 45 45 45 46 45 44 45 45 45
63 63 63 62 62 62 62 61 61 61 60 61 60 61 61 61 61 60 60 58 56 54 52 49 41 41 40 41 47 52 58 59 60 59 59 58 57 58 57 57 57 56 55 53 54 48 46 45 45 44 44 45 46 47 46 45 45 45 44 44 45 45 45
64 63 63 63 63 63 62 61 61 61 60 60 60 60 59 60 60 60 59 58 56 54 52 43 40 41 41 40 42 48 58 59 59 59 59 59 59 58 56 55 56 57 56 55 54 52 50 46 45 44 44 44 44 44 44 46 45 45 45 44 44 45 45
63 63 63 63 63 62 62 61 60 60 59 60 60 59 59 59 59 60 59 57 56 54 53 42 40 40 41 40 40 44 59 59 59 59 59 59 59 57 56 55 55 55 55 53 53 52 50 50 47 46 46 47 47 46 44 42 43 47 47 45 44 44 45
63 63 62 62 62 62 61 60 60 60 60 60 59 58 58 58 58 59 59 58 56 54 52 44 40 40 41 40 40 42 60 59 59 60 59 59 59 57 56 55 55 55 54 54 53 50 49 49 48 50 51 50 50 49 47 46 45 45 46 46 45 42 45
62 62 63 62 61 61 60 60 60 61 60 60 59 59 58 57 58 58 59 58 56 53 50 40 41 40 40 40 40 45 60 59 59 60 59 59 60 58 58 56 55 54 53 54 51 48 47 47 48 49 49 49 49 50 50 50 50 49 47 46 46 45 45
62 62 62 62 61 60 60 59 59 60 60 60 60 60 59 59 58 58 58 58 57 54 51 40 40 40 40 40 41 56 59 59 58 59 59 59 59 60 58 56 55 54 53 53 49 42 43 45 48 49 48 48 48 49 49 49 45 45 46 46 46 46 46
62 62 61 61 60 59 59 59 60 61 60 60 59 59 58 58 59 58 57 57 57 55 53 44 40 40 40 39 45 56 58 58 58 58 58 59 60 60 57 57 55 54 52 53 47 41 41 41 48 48 48 47 47 47 47 49 45 43 42 42 42 42 41
62 61 61 60 59 59 60 60 60 61 60 59 59 60 60 59 59 58 57 55 56 56 53 46 40 41 40 40 44 54 57 56 56 56 58 59 60 60 55 49 53 54 52 52 44 40 40 44 48 48 48 47 46 46 46 47 46 46 44 44 43 42 42
62 62 61 60 60 59 60 60 61 61 61 61 60 61 61 60 59 59 58 56 53 55 55 49 41 41 40 40 45 53 56 56 54 54 57 58 58 59 59 55 47 48 50 48 42 42 40 43 47 48 49 48 46 44 45 45 43 43 45 46 46 47 44
62 61 61 60 61 60 61 61 61 61 62 63 62 61 61 60 58 58 59 58 56 56 55 54 48 41 41 41 41 49 55 53 51 52 54 58 57 58 59 59 55 45 43 43 42 41 41 40 45 49 51 49 45 41 45 44 45 45 45 45 44 44 44
61 61 61 60 61 61 61 60 60 61 60 61 60 59 59 59 59 58 59 59 58 57 56 55 50 40 42 42 41 43 53 52 52 52 52 55 57 56 57 57 57 49 43 42 42 41 41 40 41 47 51 49 46 43 43 47 49 47 46 45 44 43 43
61 60 61 61 60 60 61 61 61 61 62 60 59 59 59 60 60 59 60 60 59 58 54 50 56 45 42 42 42 40 49 52 51 51 51 53 56 55 56 55 56 50 43 42 41 41 40 41 39 49 52 42 39 39 47 51 51 49 47 45 43 41 41
60 60 60 61 60 59 60 60 60 60 60 60 59 59 59 59 59 59 60 60 60 60 58 53 45 52 44 42 42 41 39 45 43 50 51 51 54 54 56 56 55 48 43 42 41 40 41 40 44 51 41 40 40 39 47 53 50 48 46 44 42 40 39
60 60 60 61 60 60 60 60 61 61 61 61 61 60 60 60 60 59 59 59 60 60 60 59 48 44 50 44 42 41 41 39 39 50 51 53 55 54 55 55 52 43 41 41 41 40 42 43 50 43 41 40 41 46 53 52 50 47 44 42 40 38 38
MSLP
1020.20 1020.68 1020.72 1020.84 1020.92 1021.04 1021.24 1021.44 1021.36 1021.36 1021.32 1021.28 1021.32 1021.32 1021.28 1021.24 1021.20 1021.12 1020.96 1020.88 1020.76 1020.64 1020.40 1020.28 1020.48 1020.44 1020.44 1020.32 1020.24 1020.12 1020.12 1020.12 1020.16 1020.20 1020.04 1019.56 1019.72 1019.32 1018.64 1018.36 1018.08 1017.64 1017.36 1017.28 1017.28 1017.60 1017.48 1017.28 1015.96 1014.48 1014.00 1013.76 1013.56 1013.48 1013.36 1013.20 1012.92 1012.80 1012.76 1012.52 1012.32 1012.04 1011.88
1020.28 1020.52 1020.64 1020.88 1021.16 1021.24 1021.56 1021.76 1021.76 1021.60 1021.60 1021.60 1021.60 1021.60 1021.48 1021.40 1021.36 1021.20 1021.16 1021.12 1021.12 1021.04 1020.72 1020.72 1020.80 1020.68 1020.68 1020.68 1020.52 1020.56 1020.64 1020.60 1020.48 1020.48 1020.48 1020.32 1020.08 1019.88 1019.60 1019.24 1018.96 1018.52 1017.96 1017.44 1017.16 1017.08 1017.64 1017.64 1016.48 1015.76 1015.16 1014.12 1013.92 1013.60 1013.20 1012.88 1012.64 1012.40 1012.20 1012.08 1011.88 1011.76 1011.64
1020.52 1020.76 1020.92 1021.20 1021.32 1021.44 1021.80 1021.96 1021.92 1021.88 1021.80 1021.84 1021.88 1021.92 1021.80 1021.56 1021.60 1021.40 1021.28 1021.36 1021.44 1021.36 1021.16 1021.08 1021.12 1021.04 1020.88 1020.60 1020.68 1020.92 1020.88 1020.96 1020.92 1020.96 1020.92 1020.60 1020.40 1020.24 1020.08 1019.84 1019.72 1019.40 1019.04 1018.52 1017.88 1017.68 1017.48 1017.40 1017.60 1016.84 1015.92 1015.56 1015.24 1014.16 1013.36 1013.08 1012.68 1012.28 1011.96 1011.72 1011.56 1011.36 1011.20
1020.84 1021.04 1021.28 1021.40 1021.44 1021.56 1021.92 1022.08 1022.04 1022.04 1022.08 1022.16 1022.04 1022.08 1022.00 1021.80 1021.72 1021.84 1021.84 1021.64 1021.64 1021.68 1021.60 1021.44 1021.44 1021.36 1021.08 1020.80 1020.92 1021.04 1021.08 1021.32 1021.32 1021.32 1021.04 1020.92 1020.88 1020.56 1020.40 1020.24 1020.04 1019.72 1019.64 1019.40 1018.92 1018.64 1018.56 1018.16 1017.60 1016.96 1016.24 1015.60 1015.28 1014.88 1013.96 1013.28 1012.88 1012.40 1011.96 1011.56 1011.36 1011.04 1010.80
1020.96 1021.16 1021.40 1021.60 1021.52 1021.76 1021.92 1022.08 1022.16 1022.32 1022.40 1022.28 1022.24 1022.24 1022.32 1022.24 1022.20 1022.20 1022.12 1022.00 1021.96 1022.00 1021.96 1021.80 1021.72 1021.60 1021.36 1021.24 1021.40 1021.52 1021.60 1021.72 1021.76 1021.76 1021.44 1021.56 1021.32 1021.04 1020.88 1020.60 1020.32 1020.12 1019.80 1019.60 1019.40 1019.20 1019.00 1018.60 1018.32 1017.80 1017.08 1016.16 1015.80 1015.28 1014.32 1013.72 1013.08 1012.56 1011.84 1011.28 1010.76 1010.52 1010.28
1021.24 1021.32 1021.48 1021.60 1021.68 1021.84 1022.08 1022.24 1022.36 1022.52 1022.56 1022.56 1022.64 1022.56 1022.60 1022.60 1022.48 1022.52 1022.44 1022.40 1022.32 1022.28 1022.28 1022.16 1022.00 1021.88 1021.72 1021.56 1021.76 1021.72 1021.80 1021.84 1021.84 1021.80 1021.72 1021.72 1021.56 1021.44 1021.28 1020.92 1020.72 1020.44 1020.20 1019.96 1019.76 1019.60 1019.36 1019.16 1018.80 1018.36 1017.60 1017.36 1017.12 1016.28 1015.20 1014.60 1013.92 1012.60 1011.84 1011.36 1010.68 1010.16 1010.12
1021.72 1021.80 1021.80 1021.84 1022.00 1022.12 1022.28 1022.48 1022.60 1022.72 1022.76 1022.84 1022.84 1022.96 1023.00 1022.80 1022.80 1022.80 1022.76 1022.72 1022.64 1022.56 1022.44 1022.36 1022.12 1022.08 1021.96 1021.72 1021.80 1021.84 1021.84 1021.76 1021.64 1021.56 1021.48 1021.52 1021.36 1021.28 1021.16 1021.08 1020.88 1020.60 1020.32 1020.16 1020.08 1019.92 1019.80 1019.60 1019.48 1019.16 1018.68 1018.00 1017.60 1017.04 1016.20 1015.32 1014.28 1013.92 1012.60 1011.64 1010.96 1010.60 1010.36
1022.04 1022.16 1022.24 1022.28 1022.36 1022.48 1022.64 1022.84 1022.96 1022.92 1022.88 1022.92 1023.12 1023.24 1023.16 1023.12 1023.04 1023.04 1023.04 1022.96 1022.92 1022.80 1022.68 1022.56 1022.36 1022.20 1022.08 1021.88 1021.84 1021.88 1021.72 1021.64 1021.52 1021.48 1021.44 1021.36 1021.24 1021.16 1020.96 1020.80 1020.56 1020.36 1020.36 1020.20 1020.12 1020.00 1019.84 1019.80 1019.84 1019.60 1019.36 1018.96 1017.96 1017.44 1016.72 1015.96 1015.20 1014.52 1013.76 1012.68 1012.12 1011.52 1010.80
1022.20 1022.36 1022.56 1022.68 1022.76 1022.80 1022.92 1023.04 1023.16 1023.00 1022.96 1023.24 1023.40 1023.40 1023.48 1023.40 1023.36 1023.28 1023.24 1023.24 1023.16 1023.04 1022.88 1022.72 1022.56 1022.40 1022.28 1022.16 1022.04 1022.04 1021.92 1021.72 1021.60 1021.60 1021.48 1021.28 1021.20 1021.12 1020.92 1020.80 1020.48 1020.28 1020.16 1020.24 1020.16 1020.04 1019.88 1019.76 1019.60 1019.40 1019.28 1019.20 1019.04 1018.28 1017.36 1016.68 1015.92 1014.92 1014.28 1013.88 1012.56 1012.04 1011.72
1022.60 1022.76 1022.92 1023.00 1023.08 1023.12 1023.16 1023.20 1023.20 1023.20 1023.36 1023.48 1023.60 1023.68 1023.68 1023.72 1023.68 1023.60 1023.52 1023.44 1023.36 1023.24 1023.12 1022.92 1022.76 1022.60 1022.44 1022.36 1022.20 1022.20 1022.12 1021.88 1021.72 1021.64 1021.56 1021.48 1021.36 1021.16 1021.08 1020.92 1020.72 1020.40 1020.40 1020.48 1020.36 1020.28 1020.04 1019.76 1019.60 1019.44 1019.24 1019.00 1018.84 1018.84 1018.16 1017.44 1016.64 1015.92 1014.48 1014.36 1013.76 1012.36 1012.24
1022.80 1022.88 1022.92 1023.00 1023.12 1023.12 1023.08 1023.16 1023.32 1023.52 1023.68 1023.72 1023.80 1023.84 1023.88 1023.88 1023.88 1023.76 1023.68 1023.60 1023.52 1023.44 1023.32 1023.16 1023.00 1022.84 1022.68 1022.56 1022.44 1022.32 1022.28 1022.04 1021.84 1021.72 1021.68 1021.60 1021.52 1021.36 1021.24 1021.00 1020.80 1020.64 1020.72 1020.72 1020.56 1020.44 1020.20 1019.88 1019.68 1019.56 1019.32 1018.96 1018.68 1018.52 1018.20 1017.96 1016.96 1016.40 1015.12 1014.52 1014.32 1013.44 1012.48
1022.96 1022.88 1022.80 1022.88 1022.96 1023.16 1023.36 1023.56 1023.72 1023.80 1023.84 1023.88 1023.92 1024.00 1023.92 1023.96 1023.92 1023.92 1023.80 1023.72 1023.64 1023.56 1023.48 1023.40 1023.20 1023.04 1022.88 1022.80 1022.64 1022.52 1022.44 1022.24 1022.08 1022.00 1021.84 1021.76 1021.68 1021.60 1021.52 1021.32 1021.12 1021.08 1021.12 1021.00 1020.80 1020.64 1020.36 1020.08 1020.00 1019.76 1019.44 1019.16 1018.84 1018.56 1018.20 1017.88 1017.28 1015.88 1015.92 1015.12 1014.32 1014.00 1013.48
1022.80 1022.84 1022.96 1023.12 1023.36 1023.48 1023.60 1023.76 1023.96 1024.04 1024.08 1024.08 1024.20 1024.16 1024.12 1024.08 1024.08 1024.04 1023.92 1023.80 1023.76 1023.72 1023.68 1023.56 1023.40 1023.24 1023.08 1023.00 1022.92 1022.80 1022.64 1022.44 1022.28 1022.16 1022.00 1021.88 1021.88 1021.84 1021.76 1021.56 1021.48 1021.52 1021.48 1021.28 1021.04 1020.88 1020.60 1020.44 1020.32 1020.12 1019.84 1019.48 1019.04 1018.68 1018.48 1018.12 1017.72 1016.60 1015.96 1015.40 1014.80 1013.88 1013.48
1023.28 1023.36 1023.48 1023.60 1023.64 1023.80 1023.88 1023.92 1024.08 1024.16 1024.20 1024.32 1024.32 1024.40 1024.36 1024.32 1024.24 1024.12 1024.04 1024.04 1023.96 1023.88 1023.84 1023.76 1023.64 1023.48 1023.36 1023.24 1023.20 1023.12 1022.92 1022.68 1022.52 1022.36 1022.24 1022.12 1022.04 1022.04 1022.00 1021.80 1021.68 1021.68 1021.64 1021.60 1021.40 1021.24 1021.04 1020.92 1020.80 1020.68 1020.32 1019.88 1019.48 1019.08 1018.80 1018.48 1017.96 1016.96 1016.08 1015.64 1015.24 1014.40 1013.52
1023.44 1023.56 1023.64 1023.72 1023.80 1023.92 1024.08 1024.24 1024.32 1024.40 1024.52 1024.48 1024.44 1024.52 1024.52 1024.48 1024.36 1024.32 1024.32 1024.28 1024.28 1024.20 1024.04 1024.04 1023.88 1023.72 1023.64 1023.48 1023.32 1023.28 1023.12 1022.96 1022.84 1022.64 1022.56 1022.40 1022.28 1022.24 1022.20 1022.00 1021.88 1021.76 1021.72 1021.76 1021.72 1021.64 1021.60 1021.56 1021.48 1021.32 1020.88 1020.52 1020.16 1019.68 1019.32 1019.00 1018.32 1017.76 1016.76 1015.92 1015.20 1014.80 1014.04
1023.68 1023.80 1023.84 1023.92 1024.08 1024.16 1024.32 1024.40 1024.40 1024.52 1024.60 1024.72 1024.68 1024.64 1024.64 1024.60 1024.56 1024.44 1024.48 1024.52 1024.52 1024.48 1024.44 1024.28 1024.20 1024.00 1023.92 1023.76 1023.52 1023.36 1023.20 1023.12 1023.00 1022.88 1022.76 1022.60 1022.56 1022.48 1022.36 1022.28 1022.12 1022.00 1021.96 1021.92 1022.08 1022.32 1022.36 1022.36 1022.12 1021.80 1021.48 1021.04 1020.68 1020.20 1019.76 1019.40 1018.88 1018.08 1017.32 1016.28 1015.72 1014.84 1014.20
1023.88 1023.96 1024.08 1024.24 1024.36 1024.40 1024.48 1024.56 1024.64 1024.72 1024.72 1024.76 1024.84 1024.88 1024.76 1024.72 1024.72 1024.64 1024.60 1024.72 1024.76 1024.84 1024.80 1024.72 1024.52 1024.36 1024.16 1023.96 1023.68 1023.44 1023.32 1023.20 1023.08 1023.00 1022.92 1022.84 1022.80 1022.64 1022.48 1022.44 1022.28 1022.28 1022.32 1022.48 1022.72 1022.84 1022.76 1022.64 1022.32 1021.92 1021.60 1021.24 1020.88 1020.48 1020.04 1019.64 1019.24 1018.64 1017.64 1016.72 1015.56 1015.08 1014.28
1024.12 1024.24 1024.36 1024.48 1024.60 1024.64 1024.72 1024.76 1024.80 1024.80 1024.92 1024.88 1024.88 1024.92 1024.92 1024.80 1024.80 1024.84 1024.96 1025.04 1025.12 1025.20 1025.20 1025.12 1025.00 1024.80 1024.52 1024.28 1023.92 1023.60 1023.48 1023.36 1023.16 1023.08 1023.04 1022.88 1022.80 1022.72 1022.68 1022.60 1022.56 1022.64 1022.88 1022.96 1022.88 1022.92 1022.80 1022.68 1022.40 1022.04 1021.76 1021.28 1020.84 1020.40 1020.04 1019.68 1019.20 1018.68 1017.88 1016.96 1015.84 1015.08 1014.48
1024.28 1024.44 1024.56 1024.72 1024.80 1024.80 1024.84 1024.92 1024.96 1024.96 1024.92 1025.00 1025.04 1025.04 1025.08 1025.08 1025.00 1025.04 1025.20 1025.32 1025.40 1025.52 1025.52 1025.52 1025.44 1025.28 1024.92 1024.56 1024.16 1023.76 1023.60 1023.52 1023.32 1023.28 1023.20 1022.96 1022.92 1022.92 1022.88 1022.84 1022.76 1023.12 1023.32 1023.40 1023.40 1023.32 1023.08 1022.80 1022.44 1022.12 1021.72 1021.24 1020.80 1020.40 1020.08 1019.68 1019.20 1018.60 1018.04 1017.20 1016.44 1015.32 1014.64
1024.40 1024.52 1024.64 1024.76 1024.84 1024.96 1025.04 1025.08 1025.04 1025.12 1025.16 1025.12 1025.12 1025.16 1025.24 1025.28 1025.28 1025.36 1025.48 1025.60 1025.72 1025.84 1025.84 1025.88 1025.84 1025.68 1025.32 1024.96 1024.48 1023.92 1023.68 1023.56 1023.40 1023.44 1023.36 1023.16 1023.12 1023.08 1023.08 1023.04 1023.08 1023.48 1023.60 1023.64 1023.64 1023.48 1023.20 1022.92 1022.60 1022.24 1021.76 1021.32 1020.88 1020.64 1020.24 1019.76 1019.24 1018.80 1018.24 1017.52 1016.56 1015.84 1014.84
1024.44 1024.56 1024.68 1024.80 1024.92 1025.04 1025.16 1025.28 1025.36 1025.40 1025.40 1025.36 1025.32 1025.28 1025.32 1025.36 1025.44 1025.56 1025.72 1025.80 1025.96 1026.08 1026.20 1026.20 1026.24 1026.16 1025.84 1025.40 1024.92 1024.08 1023.76 1023.76 1023.64 1023.44 1023.40 1023.28 1023.28 1023.32 1023.32 1023.32 1023.40 1023.60 1023.76 1023.72 1023.72 1023.52 1023.28 1023.12 1022.72 1022.32 1021.80 1021.44 1021.12 1020.84 1020.40 1019.80 1019.32 1018.84 1018.28 1017.60 1016.84 1015.88 1015.12
1024.48 1024.60 1024.72 1024.88 1025.08 1025.24 1025.32 1025.36 1025.40 1025.48 1025.56 1025.56 1025.52 1025.44 1025.40 1025.40 1025.48 1025.64 1025.76 1025.92 1026.08 1026.40 1026.52 1026.60 1026.72 1026.88 1026.56 1025.96 1025.44 1024.32 1023.96 1023.88 1023.72 1023.52 1023.56 1023.48 1023.36 1023.36 1023.44 1023.56 1023.60 1023.72 1023.76 1023.68 1023.60 1023.44 1023.40 1023.32 1022.92 1022.44 1021.92 1021.72 1021.36 1020.96 1020.44 1019.88 1019.36 1018.76 1018.08 1017.56 1016.76 1016.08 1015.44
1024.48 1024.64 1024.80 1024.96 1025.12 1025.28 1025.40 1025.52 1025.60 1025.60 1025.64 1025.64 1025.68 1025.72 1025.68 1025.64 1025.64 1025.76 1025.84 1026.04 1026.32 1026.60 1026.88 1027.04 1027.36 1027.20 1027.00 1026.84 1026.04 1025.00 1024.08 1023.96 1023.80 1023.76 1023.76 1023.60 1023.48 1023.44 1023.52 1023.56 1023.56 1023.60 1023.52 1023.40 1023.24 1023.24 1023.20 1023.04 1022.92 1022.72 1022.28 1021.88 1021.36 1020.88 1020.40 1019.84 1019.28 1018.72 1018.24 1017.72 1017.12 1016.48 1015.84
1024.52 1024.68 1024.84 1025.04 1025.16 1025.28 1025.52 1025.64 1025.76 1025.84 1025.88 1025.92 1025.92 1025.92 1025.92 1025.88 1025.92 1025.92 1026.08 1026.36 1026.60 1026.84 1027.20 1027.64 1027.68 1027.40 1027.04 1026.72 1026.44 1025.56 1024.48 1024.12 1023.88 1023.92 1023.76 1023.64 1023.52 1023.44 1023.64 1023.72 1023.52 1023.28 1023.08 1023.08 1022.92 1023.12 1023.12 1022.84 1022.56 1022.32 1022.08 1021.72 1021.28 1020.80 1020.20 1019.68 1019.24 1018.84 1018.40 1017.88 1017.20 1016.60 1015.96
1024.52 1024.72 1024.84 1025.04 1025.20 1025.40 1025.56 1025.68 1025.84 1025.96 1026.00 1026.08 1026.08 1026.08 1026.12 1026.08 1026.04 1026.12 1026.24 1026.52 1026.88 1027.12 1027.48 1028.08 1027.80 1027.56 1027.20 1026.72 1026.40 1026.00 1024.60 1024.20 1024.00 1023.92 1023.80 1023.56 1023.40 1023.56 1023.80 1023.76 1023.48 1023.12 1023.04 1023.04 1022.96 1023.08 1022.88 1022.64 1022.32 1022.00 1021.56 1021.04 1020.64 1020.28 1020.16 1019.88 1019.36 1018.72 1018.24 1017.68 1017.04 1016.52 1015.96
1024.60 1024.80 1024.96 1025.12 1025.32 1025.48 1025.64 1025.80 1025.96 1026.08 1026.20 1026.20 1026.24 1026.28 1026.32 1026.32 1026.28 1026.20 1026.32 1026.72 1027.12 1027.44 1027.64 1028.24 1027.96 1027.60 1027.24 1026.96 1026.36 1025.92 1024.56 1024.40 1024.12 1023.96 1023.76 1023.60 1023.44 1023.64 1023.76 1023.76 1023.44 1023.28 1023.20 1023.04 1023.12 1023.24 1022.96 1022.40 1022.00 1021.60 1021.08 1020.56 1020.12 1019.88 1019.60 1019.32 1019.12 1018.72 1018.12 1017.56 1017.08 1016.52 1016.12
1024.72 1024.92 1025.08 1025.24 1025.40 1025.56 1025.76 1026.00 1026.08 1026.12 1026.16 1026.28 1026.36 1026.48 1026.52 1026.52 1026.48 1026.44 1026.48 1026.72 1027.20 1027.64 1027.96 1028.24 1028.08 1027.64 1027.36 1026.96 1026.32 1025.80 1024.56 1024.40 1024.16 1023.84 1023.88 1023.68 1023.48 1023.52 1023.72 1023.80 1023.44 1023.16 1023.32 1023.20 1023.36 1023.40 1023.08 1022.64 1022.12 1021.36 1020.72 1020.40 1020.04 1019.60 1019.16 1018.84 1018.52 1018.24 1018.08 1017.76 1017.32 1016.84 1016.08
1024.80 1025.00 1025.16 1025.36 1025.52 1025.72 1025.92 1026.00 1026.04 1026.04 1026.12 1026.24 1026.36 1026.40 1026.56 1026.68 1026.76 1026.68 1026.60 1026.72 1027.08 1027.64 1028.24 1028.40 1028.08 1027.80 1027.44 1027.08 1026.36 1025.52 1024.52 1024.36 1024.12 1023.88 1023.84 1023.68 1023.28 1023.44 1023.44 1023.72 1023.52 1023.48 1023.56 1023.32 1023.56 1023.64 1023.32 1022.84 1022.24 1021.32 1020.88 1020.48 1020.04 1019.56 1019.12 1018.60 1018.28 1018.12 1017.88 1017.60 1017.24 1016.68 1016.00
1024.96 1025.12 1025.32 1025.48 1025.68 1025.88 1026.04 1026.12 1026.16 1026.16 1026.20 1026.32 1026.40 1026.44 1026.60 1026.68 1026.80 1026.88 1026.84 1026.80 1026.96 1027.44 1028.16 1028.40 1028.16 1027.92 1027.56 1027.16 1026.48 1025.08 1024.60 1024.44 1024.24 1023.92 1023.84 1023.68 1023.44 1023.24 1023.36 1023.68 1023.64 1023.64 1023.64 1023.48 1023.52 1023.64 1023.52 1023.24 1022.28 1021.36 1020.88 1020.44 1020.04 1019.60 1019.04 1018.72 1018.48 1018.28 1017.96 1017.52 1017.04 1016.44 1015.80
1025.00 1025.16 1025.36 1025.52 1025.80 1026.00 1026.08 1026.08 1026.12 1026.12 1026.24 1026.32 1026.40 1026.52 1026.68 1026.76 1026.88 1027.08 1027.12 1027.04 1026.96 1027.24 1027.84 1028.28 1028.20 1028.04 1027.68 1027.36 1026.64 1025.32 1024.80 1024.64 1024.36 1023.96 1023.76 1023.64 1023.20 1023.00 1023.56 1023.68 1023.68 1023.68 1023.76 1023.60 1023.64 1023.60 1023.36 1023.20 1022.28 1021.44 1020.84 1020.52 1020.16 1019.68 1019.00 1018.40 1018.12 1017.84 1017.48 1017.04 1016.60 1016.04 1015.44
1025.08 1025.24 1025.44 1025.68 1025.92 1026.08 1026.12 1026.12 1026.20 1026.16 1026.20 1026.28 1026.36 1026.40 1026.48 1026.68 1026.84 1027.08 1027.32 1027.40 1027.32 1027.12 1027.64 1028.20 1028.20 1028.08 1027.84 1027.56 1027.04 1025.92 1025.04 1025.00 1024.80 1024.36 1023.68 1023.56 1023.20 1023.00 1023.64 1024.04 1023.76 1023.72 1023.72 1023.72 1023.64 1023.52 1023.20 1022.96 1022.28 1021.48 1020.88 1020.68 1020.12 1019.48 1018.88 1018.40 1017.92 1017.40 1017.00 1016.52 1015.96 1015.52 1015.04
1025.08 1025.32 1025.56 1025.88 1025.96 1026.08 1026.12 1026.20 1026.20 1026.16 1026.16 1026.20 1026.24 1026.24 1026.32 1026.48 1026.68 1026.88 1027.16 1027.40 1027.60 1027.24 1027.28 1027.80 1028.08 1028.08 1027.96 1027.72 1027.32 1026.40 1025.52 1025.36 1025.24 1025.04 1023.96 1023.44 1023.32 1023.04 1023.08 1023.36 1023.68 1023.76 1023.84 1023.84 1023.52 1023.20 1023.04 1022.80 1022.36 1021.64 1020.76 1020.32 1020.12 1019.72 1019.12 1018.60 1018.04 1017.32 1016.52 1015.96 1015.44 1014.96 1014.52
1025.28 1025.48 1025.72 1025.88 1025.96 1026.04 1026.12 1026.16 1026.16 1026.00 1025.92 1025.84 1026.04 1026.16 1026.32 1026.56 1026.72 1026.80 1026.84 1026.96 1027.24 1027.28 1027.28 1027.44 1027.96 1027.96 1027.88 1027.68 1027.56 1027.04 1026.00 1025.88 1025.76 1025.32 1024.76 1023.56 1023.44 1023.16 1022.96 1022.88 1022.96 1023.48 1023.80 1023.68 1023.44 1023.04 1022.80 1022.64 1022.36 1021.60 1020.56 1020.24 1020.20 1019.92 1019.08 1018.48 1017.80 1017.24 1016.72 1016.16 1015.52 1014.88 1014.32
1025.44 1025.64 1025.80 1025.92 1026.04 1026.04 1026.12 1026.24 1026.20 1026.16 1026.16 1026.20 1026.32 1026.44 1026.48 1026.44 1026.52 1026.60 1026.72 1026.76 1026.80 1027.00 1027.28 1027.28 1027.72 1027.80 1027.72 1027.60 1027.48 1027.32 1026.48 1026.36 1026.20 1025.84 1025.32 1024.24 1023.56 1023.36 1023.08 1023.04 1023.20 1023.40 1023.68 1023.56 1023.28 1022.88 1022.44 1022.28 1021.96 1021.52 1020.52 1020.36 1020.16 1019.80 1019.04 1018.04 1017.12 1016.84 1016.48 1015.96 1015.36 1014.76 1014.12
1025.56 1025.72 1025.84 1025.96 1026.08 1026.16 1026.24 1026.20 1026.12 1026.04 1026.08 1026.32 1026.44 1026.40 1026.32 1026.20 1026.20 1026.24 1026.28 1026.40 1026.52 1026.68 1027.24 1027.56 1027.20 1027.48 1027.60 1027.48 1027.36 1027.32 1026.96 1026.68 1026.64 1026.28 1025.44 1024.88 1023.84 1023.84 1023.60 1023.56 1023.32 1023.56 1023.56 1023.32 1023.12 1022.64 1022.12 1021.84 1021.52 1021.08 1020.36 1020.36 1019.92 1019.40 1018.64 1017.64 1016.96 1016.68 1016.44 1015.92 1015.32 1014.76 1014.04
1025.72 1025.80 1025.92 1025.96 1026.08 1026.20 1026.24 1026.28 1026.32 1026.24 1026.20 1026.20 1026.24 1026.24 1026.20 1026.16 1026.00 1026.08 1026.04 1026.04 1026.20 1026.32 1026.72 1027.36 1027.44 1027.20 1027.36 1027.32 1027.16 1027.04 1027.04 1026.88 1026.72 1026.36 1025.76 1025.32 1024.24 1024.20 1023.84 1023.68 1023.56 1023.56 1023.44 1023.04 1022.76 1022.36 1021.84 1021.48 1021.04 1020.44 1020.40 1020.08 1019.48 1018.96 1018.12 1017.48 1017.28 1016.92 1016.56 1016.08 1015.60 1015.00 1014.20
1025.68 1025.80 1025.88 1025.92 1025.96 1026.04 1026.12 1026.12 1026.00 1025.92 1025.84 1025.64 1025.68 1025.72 1025.72 1025.76 1025.76 1025.84 1025.88 1026.00 1026.00 1026.16 1026.36 1026.52 1027.16 1027.16 1027.12 1027.12 1026.96 1026.92 1026.76 1026.72 1026.72 1026.36 1026.00 1025.12 1024.64 1024.60 1024.20 1024.00 1023.72 1023.60 1023.36 1022.84 1022.40 1022.08 1021.56 1021.08 1020.68 1020.40 1020.20 1019.80 1019.08 1018.32 1017.60 1017.12 1016.96 1017.04 1016.72 1016.20 1015.76 1015.16 1014.44
Wind_Speed
7 7 6 5 5 5 6 6 5 6 7 7 6 6 6 6 5 6 6 6 6 6 5 6 6 6 7 7 7 8 7 7 8 7 9 8 9 9 11 11 12 12 12 11 11 11 12 13 12 9 9 9 8 8 10 11 11 10 10 10 11 11 9
5 5 4 4 5 4 7 7 6 6 6 7 7 6 6 6 6 6 6 6 6 6 6 6 6 6 7 6 7 7 8 8 7 8 8 8 8 8 9 9 10 10 12 12 12 11 10 12 13 12 11 10 10 10 9 9 9 10 10 10 11 11 10
4 4 4 4 4 5 7 6 5 5 5 6 6 7 6 6 6 6 6 7 7 7 6 6 7 7 6 6 7 7 7 8 7 7 7 7 8 8 8 9 8 9 9 10 11 12 12 11 11 13 13 14 13 10 9 10 11 11 10 10 11 11 11
5 4 4 4 3 4 6 5 5 6 5 5 5 6 6 7 7 7 7 7 7 7 7 7 7 6 6 7 7 7 8 8 7 8 7 8 8 8 9 7 8 8 9 9 10 10 11 12 13 13 14 13 14 14 11 13 12 13 12 12 12 12 12
3 3 4 3 4 6 5 5 5 5 5 5 5 6 7 7 7 7 7 7 7 7 7 6 6 6 6 7 7 7 6 7 7 7 7 8 9 7 8 8 8 9 9 9 10 10 10 11 11 12 12 13 13 12 13 13 14 14 13 12 12 12 11
5 5 5 6 6 5 5 5 5 5 5 5 6 6 7 7 7 7 7 7 7 7 7 6 6 7 6 5 6 6 6 6 7 7 6 7 7 8 7 7 7 8 8 8 9 9 10 10 11 12 12 13 13 13 13 15 12 12 13 13 13 11 11
6 6 5 6 6 5 5 6 5 5 5 5 6 6 6 7 7 7 7 7 8 7 7 6 6 7 6 5 6 6 5 4 5 6 6 7 7 8 7 7 7 7 7 8 9 9 9 9 10 11 12 11 12 12 12 13 14 14 13 12 13 14 8
6 6 6 6 6 7 6 6 5 5 5 6 6 6 6 7 7 7 8 8 7 7 7 7 6 6 6 5 6 6 5 5 6 7 5 6 6 7 8 7 7 6 6 7 7 8 8 8 8 9 10 12 13 11 12 12 13 14 14 14 15 15 15
6 7 6 6 6 7 7 6 6 5 6 6 6 6 7 7 7 7 7 8 7 7 7 8 7 6 6 6 6 7 7 5 6 7 7 7 8 9 8 9 7 7 7 8 8 8 8 8 8 8 9 10 11 13 11 12 12 14 16 14 15 14 15
8 8 7 8 8 7 7 6 6 6 6 6 5 5 6 6 6 6 6 7 7 7 7 8 8 7 7 6 6 7 7 7 6 6 7 7 8 8 8 9 8 7 8 8 8 8 9 8 8 8 9 10 10 11 12 13 12 14 15 14 14 15 15
8 8 7 8 7 7 7 6 6 6 6 5 5 5 5 6 5 6 6 7 7 7 8 7 8 8 7 7 7 7 8 8 7 7 7 8 8 8 8 8 8 7 8 8 8 9 9 9 9 9 9 10 10 11 11 13 14 11 15 14 13 15 17
7 7 8 8 8 7 7 7 6 6 5 5 5 5 5 5 5 5 6 6 7 8 8 8 8 7 8 7 8 7 8 8 7 8 7 7 7 8 9 9 9 9 9 9 9 9 9 9 10 10 10 10 10 11 12 12 15 11 12 15 15 15 16
8 8 8 8 7 7 7 7 7 6 5 5 5 5 5 5 6 6 6 7 7 7 8 8 8 8 7 8 8 7 8 9 9 8 8 8 7 8 9 9 9 9 9 9 9 10 10 10 10 11 11 11 11 11 11 12 14 17 13 14 15 17 18
9 8 8 8 8 7 7 7 6 6 5 5 5 5 5 6 6 6 7 8 8 8 8 8 8 8 8 8 8 8 9 9 9 8 8 9 8 8 9 9 9 10 10 10 10 10 10 11 11 11 11 11 11 11 12 13 15 17 14 13 13 15 17
8 7 8 8 8 7 7 6 6 6 6 5 5 5 5 4 5 7 7 8 9 9 9 9 9 8 8 8 8 6 8 9 9 9 8 9 9 8 9 10 10 10 10 11 11 11 11 12 12 12 12 12 12 12 12 13 14 15 18 16 15 14 16
8 8 8 7 8 7 6 6 5 5 5 5 5 5 5 6 6 7 7 8 9 9 10 9 9 9 8 9 8 8 8 8 8 8 9 9 10 9 9 9 10 10 9 12 12 11 11 12 12 12 13 12 13 13 13 13 14 15 18 17 16 16 15
8 8 8 7 7 7 6 6 6 5 5 5 5 5 6 6 6 7 8 9 10 10 10 10 10 9 10 9 8 8 8 8 8 8 9 9 9 9 10 9 10 11 12 12 11 10 11 11 12 12 13 12 13 14 13 13 13 15 15 17 16 16 15
8 8 8 7 7 7 6 6 5 6 5 5 5 5 5 5 7 7 8 9 10 10 10 11 11 11 10 9 9 8 8 8 8 8 8 8 9 9 10 10 11 12 12 12 12 12 13 15 13 13 14 14 14 13 12 13 14 14 16 17 17 15 16
9 9 8 8 7 6 6 6 5 5 5 6 6 6 6 6 6 8 9 9 9 10 10 11 12 12 11 10 9 8 8 8 8 8 9 9 9 9 10 11 11 12 12 12 12 13 14 16 15 15 16 15 15 14 14 15 14 14 16 16 17 17 15
8 8 7 7 6 6 6 6 6 6 6 6 6 6 6 7 7 8 8 9 10 10 11 12 12 12 11 11 10 8 8 8 8 7 8 9 9 10 11 11 11 11 12 12 14 15 15 16 14 17 17 16 15 15 15 14 14 15 15 16 16 15 16
8 8 7 7 7 7 6 6 6 6 6 6 6 6 6 6 7 7 7 8 9 10 11 12 13 13 12 11 10 9 8 8 8 8 8 9 9 10 10 11 11 12 12 13 14 14 15 13 15 17 16 16 16 15 15 14 14 14 14 15 15 16 15
7 8 8 8 7 7 7 6 6 6 5 6 5 6 6 7 7 8 8 8 10 10 10 11 11 10 11 12 11 8 8 8 8 8 9 9 9 10 10 10 11 12 12 10 10 8 9 12 14 16 17 16 16 15 15 14 14 14 14 15 15 15 15
8 8 8 8 7 7 7 6 6 6 6 6 6 6 6 6 7 8 9 9 9 9 10 10 12 18 14 9 10 8 7 8 8 8 9 8 9 10 11 11 11 15 9 10 13 10 14 16 16 15 16 16 16 16 16 16 15 14 15 15 15 16 17
8 8 8 8 7 8 7 6 6 7 7 6 6 6 6 7 7 7 9 10 9 9 10 9 15 16 18 17 10 10 7 7 7 7 8 8 9 10 11 11 11 13 14 15 16 16 16 17 17 16 17 18 17 15 15 15 15 15 15 15 15 15 16
9 9 8 8 8 8 7 7 7 7 6 7 6 6 6 6 6 7 8 9 10 9 9 12 15 15 16 18 15 11 7 7 7 7 8 8 8 10 10 11 11 11 12 16 16 15 17 18 18 18 18 17 16 14 12 12 15 15 15 15 17 16 16
9 9 9 8 8 8 8 8 7 7 7 7 7 7 7 6 6 6 7 9 10 10 10 12 14 16 16 17 18 13 7 7 7 7 8 9 9 10 10 10 12 12 12 17 15 16 17 18 18 19 17 18 18 19 18 16 15 14 12 14 15 16 15
9 9 9 8 8 8 8 7 6 6 6 6 7 7 7 7 6 6 6 8 8 9 10 11 13 16 16 19 18 16 5 6 7 8 9 9 8 9 10 11 12 13 14 14 13 17 17 17 17 17 17 17 18 20 20 19 16 17 16 15 15 16 17
10 9 9 8 8 8 7 7 7 6 6 6 6 6 6 7 6 6 5 6 7 8 8 12 13 16 16 18 20 16 6 6 7 7 8 9 9 10 10 10 12 12 12 13 12 16 16 17 18 16 17 18 18 18 18 17 17 16 15 14 16 18 20
9 9 9 9 8 8 7 7 6 6 6 6 6 6 6 6 7 6 5 5 6 8 8 12 13 15 16 18 20 9 9 7 8 7 8 9 9 9 9 9 10 11 12 12 16 20 17 15 17 17 18 18 19 17 16 15 14 14 15 15 15 18 18
9 9 9 9 8 7 7 6 6 5 6 5 6 6 6 6 6 7 7 5 5 6 8 10 12 14 15 18 15 10 9 8 8 8 8 9 8 9 7 8 9 11 12 14 18 20 20 16 15 17 18 19 18 18 18 17 19 18 17 18 20 21 21
9 9 8 8 8 7 6 6 5 4 5 5 5 5 5 5 5 6 7 7 6 5 7 10 11 11 14 16 16 11 8 9 9 10 8 9 9 10 8 13 13 12 15 16 19 19 20 16 14 16 18 18 19 20 19 19 17 15 20 20 20 19 19
9 8 9 8 7 7 6 5 5 5 5 5 5 5 5 5 5 4 5 6 6 6 6 8 10 9 11 12 12 11 9 9 9 9 10 9 9 9 10 5 12 15 15 16 20 20 20 16 13 13 16 16 16 17 17 18 18 19 21 21 20 20 17
9 8 8 7 6 6 5 5 4 4 4 4 4 4 4 5 5 4 4 4 4 6 7 6 7 8 10 11 11 10 9 9 10 10 10 11 8 10 9 10 10 15 17 17 19 21 19 18 12 12 16 14 12 13 13 14 14 14 16 18 17 15 15
8 8 7 7 6 6 5 5 5 5 5 4 4 3 3 3 3 3 3 3 3 2 3 5 6 7 8 9 10 9 9 9 10 10 10 11 10 10 11 11 12 14 16 16 17 20 20 18 15 11 14 11 10 12 15 12 16 20 16 14 14 15 14
8 7 7 6 6 6 5 4 4 4 4 4 4 3 2 3 3 2 2 3 4 3 5 4 6 7 4 8 9 8 7 9 9 11 10 10 11 10 11 11 12 13 16 17 17 18 20 17 17 10 12 13 16 16 13 16 18 18 16 13 14 15 15
7 6 6 6 6 6 5 5 4 4 4 4 4 4 3 2 2 3 2 3 3 4 5 5 6 9 5 7 9 9 8 7 9 9 10 11 11 10 10 12 13 13 16 17 17 17 18 17 12 13 15 16 16 16 15 15 16 17 17 16 14 16 15
7 6 7 6 6 5 4 4 3 3 2 2 3 2 2 2 2 3 3 3 3 4 5 4 6 9 8 7 10 9 9 9 8 7 10 10 10 10 11 13 13 16 17 18 17 16 14 12 10 16 14 16 18 15 16 18 17 15 14 15 16 16 16
Wind_Direction
74 83 79 71 69 66 71 73 63 57 46 40 38 28 29 23 16 14 9 13 360 6 348 9 6 4 355 355 353 353 352 349 341 333 328 331 340 326 334 333 331 324 315 304 298 296 301 303 301 298 291 295 308 303 297 291 285 277 276 275 275 274 264
86 93 89 85 86 76 80 77 61 53 55 46 38 34 30 32 26 26 25 24 10 7 355 14 6 4 6 2 1 3 358 357 354 351 340 338 332 332 332 332 325 321 321 315 312 316 313 307 303 306 310 309 300 291 287 290 292 287 281 274 271 275 273
107 90 80 85 83 84 81 77 70 58 51 49 50 38 32 38 35 28 29 25 16 9 5 13 12 9 6 0 26 8 8 2 357 355 344 338 343 340 341 333 332 334 330 329 329 336 332 327 316 316 313 314 308 309 309 300 296 295 293 288 280 270 267
98 96 95 86 88 104 94 83 67 58 53 55 48 48 38 34 36 30 16 17 25 14 11 11 16 10 355 14 21 13 17 11 9 356 350 359 348 345 345 340 332 333 332 324 327 332 328 322 322 319 319 316 318 316 315 316 312 301 292 285 278 273 269
71 98 100 110 91 92 92 90 81 72 63 59 51 48 41 29 29 25 23 20 25 18 16 16 18 9 7 23 25 17 19 15 14 0 1 2 353 351 349 344 341 340 333 334 338 332 327 323 320 314 311 319 316 312 314 310 309 300 291 284 282 276 268
82 89 96 87 79 89 89 89 87 77 68 59 46 46 42 33 29 29 26 25 21 23 21 19 20 22 9 38 24 24 23 18 15 6 9 358 0 356 348 345 346 338 335 339 334 334 333 333 324 318 319 324 314 315 315 318 311 307 307 302 298 299 309
88 81 76 88 85 91 88 74 77 74 70 61 58 47 34 33 39 36 32 31 25 24 22 17 21 25 15 22 34 21 24 20 11 9 10 3 1 0 355 347 348 338 339 345 344 334 336 331 329 326 323 317 316 312 310 305 311 311 305 304 317 318 311
97 83 66 79 88 88 86 86 86 79 73 65 54 49 40 42 41 43 38 30 31 26 27 25 19 30 16 21 32 14 22 6 14 9 8 358 1 357 356 351 342 349 347 347 338 335 334 333 327 326 327 324 320 316 313 313 309 300 306 313 317 313 313
97 101 100 85 82 78 88 93 87 78 70 68 60 53 49 43 37 42 40 40 32 31 29 29 28 26 23 24 27 24 17 8 10 14 5 1 6 354 1 350 345 350 357 356 345 343 336 333 326 326 327 321 319 317 318 312 313 303 311 312 310 309 319
83 88 95 94 90 90 90 90 89 77 70 68 67 59 56 51 45 40 45 40 39 34 32 33 32 28 28 26 26 25 17 5 4 15 7 8 5 356 5 352 353 350 6 352 347 342 336 334 333 330 325 320 321 313 315 312 310 311 308 315 313 311 315
95 97 99 98 97 103 101 90 82 80 73 72 71 65 61 59 52 47 46 45 42 37 34 30 30 28 28 28 23 26 15 6 12 14 16 7 7 359 0 354 357 358 5 350 349 345 336 337 337 335 327 325 320 315 313 308 307 307 304 313 311 310 315
99 105 106 104 102 94 86 82 82 79 77 73 70 67 64 60 58 51 47 47 40 41 35 32 27 29 24 27 19 20 14 10 12 14 15 8 10 5 2 360 6 3 1 352 349 348 341 343 342 333 330 324 320 316 314 310 304 303 309 307 308 307 309
98 92 91 93 95 96 94 95 87 80 78 80 71 63 63 62 58 55 49 45 46 40 38 30 28 26 25 25 21 12 11 9 10 15 9 13 12 6 4 2 10 5 0 351 353 348 346 347 342 338 333 329 324 323 319 312 304 305 309 305 306 306 306
98 97 95 91 87 82 79 79 80 82 80 77 79 71 63 61 55 50 53 47 38 39 34 30 25 21 21 20 20 12 10 9 10 15 6 10 12 6 6 0 7 7 2 354 356 347 350 347 345 338 334 330 326 326 323 318 310 307 305 306 308 306 309
92 94 94 92 92 90 88 84 87 83 76 66 69 71 70 63 64 60 51 45 43 36 30 29 19 19 14 12 13 13 9 8 9 12 5 11 9 9 4 1 5 5 4 359 357 353 352 351 345 339 337 333 329 326 325 318 312 307 306 311 307 307 303
98 96 94 90 86 88 84 85 84 87 85 82 69 69 67 63 56 57 56 49 43 35 30 23 19 12 13 5 5 11 9 8 8 8 7 13 9 8 5 5 5 4 4 359 3 359 355 349 341 337 334 330 326 323 320 318 313 308 307 305 306 305 307
102 99 95 89 88 85 88 88 84 75 75 82 84 69 66 67 66 57 52 51 42 36 26 21 16 10 10 1 1 8 6 10 10 9 11 12 7 8 4 6 7 5 5 1 3 355 350 344 340 336 332 328 323 320 318 315 310 307 307 304 305 305 307
97 94 91 91 92 94 87 81 79 83 82 75 71 74 71 69 67 61 55 46 42 34 27 21 13 7 5 1 357 5 8 9 10 13 10 8 10 12 6 9 7 7 3 359 356 354 349 344 341 336 331 327 323 319 316 312 309 306 304 303 304 306 307
99 98 96 94 90 88 89 89 86 78 76 78 74 73 70 58 57 62 54 50 42 33 28 20 14 5 0 359 356 1 12 8 10 17 6 9 14 10 11 7 8 11 3 360 356 349 346 341 339 335 329 327 323 320 318 313 309 308 305 303 306 307 308
100 97 95 95 97 93 88 86 84 78 72 68 71 73 71 69 63 61 58 51 41 33 27 20 12 6 1 1 355 355 11 6 14 19 5 12 11 13 10 8 10 12 2 359 352 347 343 340 336 331 329 325 324 322 317 315 314 311 308 306 305 304 306
102 100 100 98 92 95 94 88 81 75 70 67 66 68 69 74 73 65 59 52 45 34 26 20 15 6 1 358 349 349 12 10 10 12 12 13 13 15 10 8 6 5 359 353 351 343 342 339 334 329 328 325 324 321 317 317 315 311 308 306 304 308 308
110 110 107 103 100 94 89 87 87 86 82 74 63 63 68 71 71 69 61 54 45 37 29 19 12 358 356 356 345 341 13 6 6 11 14 10 7 14 8 7 1 1 350 348 336 331 341 345 336 328 327 327 324 320 317 315 314 310 308 307 306 305 306
113 112 110 106 103 100 97 93 88 82 76 71 70 70 70 67 70 66 57 51 48 40 29 19 356 349 347 355 342 342 352 12 7 13 10 6 7 9 4 1 356 356 334 352 345 354 353 341 332 326 326 325 323 318 315 314 313 314 312 310 308 308 305
117 112 108 107 110 105 98 94 87 81 76 72 72 73 72 74 69 64 60 52 46 43 31 11 351 351 346 346 347 331 339 10 11 9 12 3 4 6 1 360 354 351 353 353 351 5 348 336 330 329 322 311 303 303 312 315 314 314 311 306 306 304 301
117 114 114 109 104 104 103 97 92 86 85 80 77 76 71 68 71 70 65 58 49 42 33 10 354 350 350 345 342 333 323 17 2 8 13 357 7 9 1 359 355 352 359 353 358 358 345 337 335 330 317 308 310 309 306 309 310 308 306 305 305 302 301
115 113 108 106 105 105 103 101 96 92 85 82 80 72 69 66 64 68 75 65 52 42 30 12 354 355 350 348 338 332 332 22 357 3 10 357 10 6 5 359 357 359 357 357 5 354 346 340 338 330 324 333 332 330 322 311 301 295 298 306 306 303 301
113 112 112 111 111 105 102 99 101 101 100 93 85 79 73 67 65 65 68 74 64 48 31 7 0 358 351 349 339 332 348 10 6 5 12 1 7 11 8 0 355 359 0 360 4 352 344 341 339 336 342 341 336 332 330 325 320 321 322 314 308 303 302
117 115 113 111 108 106 104 109 106 99 96 90 86 83 79 74 64 59 64 74 74 58 40 15 7 359 355 349 342 317 13 354 7 5 13 358 4 9 12 1 357 2 358 3 358 348 339 339 339 340 344 341 338 337 332 333 333 329 322 314 308 304 304
121 120 119 117 113 110 106 103 102 102 101 95 90 89 83 76 70 60 56 60 72 66 54 28 10 4 356 352 339 325 18 359 4 5 10 4 8 356 24 5 5 5 358 357 351 342 335 330 337 344 343 343 341 337 334 332 328 320 310 305 305 305 303
126 122 120 118 116 113 114 110 107 107 103 100 98 91 87 81 73 66 53 43 53 70 61 37 21 7 359 354 347 347 14 6 358 358 12 359 356 9 58 17 26 16 3 354 342 334 330 331 338 344 346 346 343 340 338 335 329 319 308 304 302 299 297
129 127 123 118 114 115 114 109 103 99 99 101 97 97 98 94 91 81 67 51 24 52 72 54 31 13 0 356 347 345 4 9 358 351 360 0 356 5 84 83 41 27 10 353 334 328 329 333 334 338 349 346 343 344 340 337 329 323 320 317 314 310 309
129 126 121 119 120 119 115 114 121 119 114 110 102 97 89 89 91 88 88 81 41 29 59 73 47 18 5 357 353 348 358 9 359 356 344 2 349 2 354 66 70 36 11 340 329 326 326 328 326 321 343 342 337 335 333 328 325 324 330 331 331 328 319
127 128 126 125 121 115 114 112 109 105 105 101 99 100 100 89 80 76 74 91 81 52 38 58 64 29 8 355 354 343 357 3 355 347 339 341 360 346 352 350 1 32 359 336 324 320 320 320 317 308 336 343 332 318 315 311 310 317 322 331 324 319 316
128 127 126 126 126 123 118 117 115 109 97 87 95 99 109 116 106 101 84 61 71 74 42 25 93 48 11 350 343 350 356 4 352 341 330 332 349 344 345 353 340 8 344 324 317 314 313 314 309 297 333 337 318 298 307 313 328 336 329 324 322 326 323
131 127 127 130 131 123 127 133 136 129 110 111 109 97 83 85 83 80 101 100 58 75 118 32 27 87 30 339 331 331 341 354 348 333 327 326 340 349 342 342 342 351 331 315 309 307 307 312 305 294 332 308 294 301 317 334 340 342 340 330 330 331 329
136 136 137 136 132 130 131 127 128 132 144 137 131 133 112 92 86 70 71 55 63 50 108 135 47 31 31 336 335 322 304 297 317 314 335 322 339 342 336 339 342 336 312 307 303 298 303 307 303 334 317 301 299 295 322 347 345 344 344 339 333 335 331
144 143 146 147 143 141 141 150 153 128 153 151 124 113 94 93 68 66 43 51 50 53 36 68 121 61 8 357 334 327 313 300 283 320 318 320 346 332 336 333 319 309 300 299 301 290 304 316 326 322 314 305 310 319 344 346 350 344 336 336 338 335 333